Weather History for KHBR - May, 2013

Change the Weather History Date:

Sunday, May 26, 2013

  Actual Average Record
Temperature  
Mean Temperature 80 °F -  
Max Temperature 91 °F 85 °F 98 °F (2006)
Min Temperature 68 °F 58 °F 52 °F (2001)
Cooling Degree Days 14    
Growing Degree Days 30 (Base 50)    
Moisture  
Dew Point 66 °F    
Average Humidity 70    
Maximum Humidity 94    
Minimum Humidity 39    
Precipitation  
Precipitation 0.00 in - - ()
Sea Level Pressure  
Sea Level Pressure 29.90 in    
Wind  
Wind Speed 17 mph (South)    
Max Wind Speed 25 mph    
Max Gust Speed 34 mph    
Visibility 10 miles    
Events      
Averages and records for this station are not official NWS values.
T = Trace of Precipitation, MM = Missing Value Source: NWS Daily Summary

Daily Weather History Graph

Daily Weather History Graph

Search for Another Location

Airport or City:

Trip Planner

Search our weather history database for the weather conditions in past years. The results will help you decide how hot, cold, wet, or windy it might be!

Date:

Astronomy

May. 26, 2013 Rise Set
Actual Time 6:25 AM CDT 8:41 PM CDT
Civil Twilight 5:56 AM CDT 9:10 PM CDT
Nautical Twilight 5:21 AM CDT 9:45 PM CDT
Astronomical Twilight 4:43 AM CDT 10:24 PM CDT
Moon 10:31 PM CDT (5/26) 7:56 AM CDT (5/26)
Length of Visible Light 15h 13m
Length of Day
14h 15m
Waning Gibbous, 96% of the Moon is Illuminated
May 26
Waning Gibbous
May 31
Last Quarter
Jun 8
New
Jun 16
First Quarter
Jun 23
Full

Hourly Weather History & Observations

Time (CDT) Temp. Heat Index Dew Point Humidity Pressure Visibility Wind Dir Wind Speed Gust Speed Precip Events Conditions
12:53 AM 71.1 °F - 66.9 °F 87% 29.96 in 10.0 mi South 18.4 mph 26.5 mph N/A   Partly Cloudy
1:53 AM 70.0 °F - 66.0 °F 87% 29.93 in 10.0 mi South 16.1 mph 24.2 mph N/A   Clear
2:53 AM 69.1 °F - 66.0 °F 90% 29.91 in 10.0 mi South 18.4 mph - N/A   Clear
3:53 AM 69.1 °F - 66.0 °F 90% 29.90 in 10.0 mi South 16.1 mph - N/A   Clear
4:53 AM 68.0 °F - 64.9 °F 90% 29.91 in 10.0 mi South 13.8 mph - N/A   Clear
5:53 AM 68.0 °F - 66.0 °F 93% 29.92 in 10.0 mi South 11.5 mph - N/A   Clear
6:31 AM 68.0 °F - 66.2 °F 94% 29.97 in 10.0 mi South 15.0 mph 21.9 mph N/A   Mostly Cloudy
6:53 AM 69.1 °F - 66.0 °F 90% 29.94 in 10.0 mi South 15.0 mph 21.9 mph N/A   Overcast
7:53 AM 70.0 °F - 66.9 °F 90% 29.96 in 10.0 mi South 17.3 mph 24.2 mph N/A   Overcast
8:53 AM 72.0 °F - 66.9 °F 84% 29.97 in 10.0 mi South 21.9 mph 27.6 mph N/A   Overcast
9:41 AM 73.4 °F - 66.2 °F 78% 30.03 in 10.0 mi SSW 13.8 mph 23.0 mph N/A   Overcast
9:53 AM 75.0 °F - 68.0 °F 79% 29.98 in 10.0 mi South 16.1 mph - N/A   Mostly Cloudy
10:16 AM 77.0 °F - 66.2 °F 69% 30.01 in 10.0 mi South 17.3 mph 25.3 mph N/A   Partly Cloudy
10:53 AM 79.0 °F - 66.9 °F 66% 29.96 in 10.0 mi South 18.4 mph 25.3 mph N/A   Clear
11:53 AM 82.0 °F 84.5 °F 66.9 °F 60% 29.94 in 10.0 mi South 19.6 mph 26.5 mph N/A   Clear
12:53 PM 84.9 °F 87.1 °F 66.0 °F 53% 29.91 in 10.0 mi South 20.7 mph 28.8 mph N/A   Clear
1:53 PM 86.0 °F 87.6 °F 64.9 °F 49% 29.89 in 10.0 mi SSE 19.6 mph 27.6 mph N/A   Clear
2:53 PM 90.0 °F 91.3 °F 64.0 °F 42% 29.86 in 10.0 mi South 20.7 mph 29.9 mph N/A   Clear
3:53 PM 91.0 °F 91.9 °F 63.0 °F 39% 29.83 in 10.0 mi South 25.3 mph 34.5 mph N/A   Clear
4:53 PM 91.0 °F 92.6 °F 64.0 °F 41% 29.82 in 10.0 mi South 23.0 mph 33.4 mph N/A   Partly Cloudy
5:53 PM 88.0 °F 89.3 °F 64.0 °F 45% 29.81 in 10.0 mi South 19.6 mph 31.1 mph N/A   Clear
6:53 PM 86.0 °F 87.6 °F 64.9 °F 49% 29.80 in 10.0 mi SSE 16.1 mph 23.0 mph N/A   Clear
7:53 PM 82.9 °F 85.0 °F 66.0 °F 56% 29.80 in 10.0 mi SSE 13.8 mph - N/A   Clear
8:53 PM 80.1 °F 82.3 °F 66.9 °F 64% 29.80 in 10.0 mi SSE 13.8 mph - N/A   Clear
9:53 PM 79.0 °F - 66.9 °F 66% 29.82 in 10.0 mi SSE 16.1 mph - N/A   Clear
10:53 PM 79.0 °F - 66.9 °F 66% 29.83 in 10.0 mi South 20.7 mph 25.3 mph N/A   Clear
11:53 PM 78.1 °F - 66.0 °F 66% 29.82 in 10.0 mi South 19.6 mph 31.1 mph N/A   Clear